Skip Navigation Links
NOAA logo - Click to go to the NOAA homepage
NOAA's National Weather Service
Alaska Aviation Weather Unit
  NWS logo - Click to go to the NWS homepage
Left Navbar Graphic     17 AKDT = 01 GMT

   
NOAA is celebrating 200 years of science, service, and stewardship. Visit the NOAA 200th celebration Web site to learn more.
USA.gov is the U.S. Government's official Web portal to all Federal, state and local government Web resources and services.
Facebook
NWS on Facebook

Important Change Regarding the AAWU Web Presence

 

Over the last several months, the AAWU has been working to navigate its webpages to a nationally supported server. Security, as well as other needs, have necessitated the change.  In the process, we have made an effort to enhance the functionality of our website, as well as some of our products. As of June 27, 2017, aawu.arh.noaa.gov will be discontinued. The new AAWU web address is weather.gov/aawu. It is now live and will run in-parallel with the old site until it is discontinued. Please send any feedback or questions regarding the new webpages to nws.ar.aawu.webauthors@noaa.gov.  Thank you for your patience during this time of transition.
AAWU Home :: Display TAF Add Bookmark
TAF PASC 252334Z 2600/2624 33004KT P6SM BKN050 BKN120
     FM260600 01004KT 2SM BR SCT150
     FM261000 09006KT P6SM SCT250
     FM262200 09013KT P6SM SKC=

METAR PASC 251953Z 22009KT 10SM BKN120 14/05 A2991= METAR PASC 252053Z 25011KT 10SM FEW040 BKN120 16/05 A2991= METAR PASC 252153Z 30010G20KT 10SM SCT043 BKN120 16/06 A2991= PASC 252201Z 29009KT 10SM OVC050 15/06 A2991= SPECI PASC 252201Z 29009KT 10SM OVC050 15/06 A2991 RMK AO2 WSHFT 2141 T01500061 PNO $= METAR PASC 252253Z 00000KT 10SM BKN050 BKN120 16/06 A2991= METAR PASC 252353Z 01009KT 10SM OVC050 12/07 A2992= METAR PASC 260053Z 04007KT 10SM FEW049 OVC055 12/07 A2992=
 Alaska TAF Map

NOAA's National Weather Service
Alaska Aviation Weather Unit
6930 Sand Lake Road
Anchorage, AK 99502-1845
Disclaimer
Credits
Glossary
Privacy Policy
About Us
Career Opportunities
Contact AAWU Internet Services Site last modified: April, 17th 2012